Reno, NV

6:45 PM PDT on October 19, 2017 (GMT -0700)
Reno-Tahoe International

Weather History for KRNO - January, 2014

Change the Weather History Date:

Tuesday, January 28, 2014

  Actual Average Record
Temperature  
Mean Temperature 52 °F 37 °F  
Max Temperature 62 °F 47 °F 64 °F (2011)
Min Temperature 41 °F 26 °F -4 °F (1949)
Degree Days  
Heating Degree Days 13 28  
Month to date heating degree days 717 828  
Since 1 July heating degree days 2951 2852  
Cooling Degree Days 0 0  
Month to date cooling degree days 0 0  
Year to date cooling degree days 0 0  
Moisture  
Dew Point 31 °F    
Average Humidity 49    
Maximum Humidity 61    
Minimum Humidity 36    
Precipitation  
Precipitation 0.00 in 0.03 in 2.71 in (1903)
Month to date precipitation T 0.94  
Year to date precipitation T 0.94  
Snow  
Snow 0.00 in 0.10 in 11.00 in (1903)
Month to date snowfall 0.0 5.3  
Since 1 July snowfall 4.7 13.7  
Snow Depth 0.00 in    
Sea Level Pressure  
Sea Level Pressure 30.18 in    
Wind  
Wind Speed 2 mph (North)    
Max Wind Speed 8 mph    
Max Gust Speed 15 mph    
Visibility 10 miles    
Events      
T = Trace of Precipitation, MM = Missing Value Source: NWS Daily Summary

Daily Weather History Graph

Daily Weather History Graph

Search for Another Location

Airport or City:

Trip Planner

Search our weather history database for the weather conditions in past years. The results will help you decide how hot, cold, wet, or windy it might be!

Date:

Astronomy

Jan. 28, 2014 Rise Set
Actual Time 7:09 AM PST 5:14 PM PST
Civil Twilight 6:41 AM PST 5:43 PM PST
Nautical Twilight 6:08 AM PST 6:15 PM PST
Astronomical Twilight 5:37 AM PST 6:47 PM PST
Moon 4:56 AM PST (1/28) 3:10 PM PST (1/28)
Length of Visible Light 11h 02m
Length of Day
10h 04m
Waning Crescent, 6% of the Moon is Illuminated
Jan 28
Waning Crescent
Jan 30
New
Feb 6
First Quarter
Feb 14
Full
Feb 22
Last Quarter

Hourly Weather History & Observations

Time (PST) Temp. Windchill Dew Point Humidity Pressure Visibility Wind Dir Wind Speed Gust Speed Precip Events Conditions
12:55 AM 42.1 °F 39.2 °F 24.1 °F 49% 30.15 in 10.0 mi East 4.6 mph - N/A   Overcast
1:55 AM 43.0 °F 41.3 °F 24.1 °F 47% 30.17 in 10.0 mi NE 3.5 mph - N/A   Overcast
2:55 AM 44.1 °F - 24.1 °F 45% 30.19 in 10.0 mi Calm Calm - N/A   Overcast
3:55 AM 43.0 °F 40.3 °F 26.1 °F 51% 30.17 in 10.0 mi West 4.6 mph - N/A   Overcast
4:55 AM 44.1 °F - 25.0 °F 47% 30.19 in 10.0 mi Calm Calm - N/A   Overcast
5:55 AM 42.1 °F - 26.1 °F 53% 30.20 in 10.0 mi Calm Calm - N/A   Overcast
6:55 AM 44.1 °F - 26.1 °F 49% 30.22 in 10.0 mi Calm Calm - N/A   Overcast
7:55 AM 44.1 °F 42.5 °F 28.0 °F 53% 30.23 in 10.0 mi SE 3.5 mph - N/A   Overcast
8:55 AM 46.0 °F - 30.9 °F 56% 30.24 in 10.0 mi Calm Calm - N/A   Overcast
9:55 AM 48.0 °F - 28.9 °F 48% 30.25 in 10.0 mi Calm Calm - N/A   Overcast
10:55 AM 51.1 °F - 30.9 °F 46% 30.26 in 10.0 mi Calm Calm - N/A   Overcast
11:55 AM 53.1 °F - 33.1 °F 47% 30.23 in 10.0 mi Calm Calm - N/A   Mostly Cloudy
12:55 PM 55.9 °F - 33.1 °F 42% 30.19 in 10.0 mi Calm Calm - N/A   Overcast
1:55 PM 57.0 °F - 32.0 °F 39% 30.15 in 10.0 mi Calm Calm - N/A   Mostly Cloudy
2:55 PM 60.1 °F - 33.1 °F 36% 30.13 in 10.0 mi Calm Calm - N/A   Overcast
3:55 PM 60.1 °F - 34.0 °F 38% 30.13 in 10.0 mi Calm Calm - N/A   Overcast
4:55 PM 59.0 °F - 33.1 °F 38% 30.13 in 10.0 mi SW 3.5 mph - N/A   Overcast
5:55 PM 57.0 °F - 33.1 °F 40% 30.15 in 10.0 mi Calm Calm - N/A   Mostly Cloudy
6:55 PM 55.9 °F - 33.1 °F 42% 30.17 in 10.0 mi NW 3.5 mph - N/A   Mostly Cloudy
7:55 PM 57.0 °F - 36.0 °F 45% 30.17 in 10.0 mi NE 4.6 mph - N/A   Mostly Cloudy
8:55 PM 55.9 °F - 39.0 °F 53% 30.16 in 10.0 mi NW 6.9 mph - N/A   Mostly Cloudy
9:55 PM 55.0 °F - 39.9 °F 57% 30.15 in 10.0 mi NNE 3.5 mph - N/A   Mostly Cloudy
10:55 PM 48.9 °F - 36.0 °F 61% 30.15 in 10.0 mi SSW 5.8 mph - N/A   Mostly Cloudy
11:55 PM 48.9 °F - 36.0 °F 61% 30.14 in 10.0 mi Calm Calm - N/A   Mostly Cloudy